Weather History for KMKO - September, 2013

Change the Weather History Date:

Sunday, September 29, 2013

  Actual Average Record
Temperature  
Mean Temperature 66 °F -  
Max Temperature 78 °F 79 °F 91 °F (1998)
Min Temperature 55 °F 53 °F 43 °F (2003)
Cooling Degree Days 1    
Growing Degree Days 16 (Base 50)    
Moisture  
Dew Point 55 °F    
Average Humidity 81    
Maximum Humidity 100    
Minimum Humidity 42    
Precipitation  
Precipitation 0.01 in - - ()
Sea Level Pressure  
Sea Level Pressure 30.03 in    
Wind  
Wind Speed 7 mph (NNW)    
Max Wind Speed 9 mph    
Max Gust Speed -    
Visibility 7 miles    
Events Fog    
Averages and records for this station are not official NWS values.
T = Trace of Precipitation, MM = Missing Value Source: NWS Daily Summary

Daily Weather History Graph

Daily Weather History Graph

Search for Another Location

Airport or City:

Trip Planner

Search our weather history database for the weather conditions in past years. The results will help you decide how hot, cold, wet, or windy it might be!

Date:

Astronomy

Sep. 29, 2013 Rise Set
Actual Time 7:15 AM CDT 7:07 PM CDT
Civil Twilight 6:49 AM CDT 7:33 PM CDT
Nautical Twilight 6:19 AM CDT 8:02 PM CDT
Astronomical Twilight 5:50 AM CDT 8:32 PM CDT
Moon 2:06 AM CDT (9/29) 3:56 PM CDT (9/29)
Length of Visible Light 12h 43m
Length of Day
11h 52m
Waning Crescent, 27% of the Moon is Illuminated
Sep 29
Waning Crescent
Oct 4
New
Oct 11
First Quarter
Oct 18
Full
Oct 26
Last Quarter

Hourly Weather History & Observations

Time (CDT) Temp. Dew Point Humidity Pressure Visibility Wind Dir Wind Speed Gust Speed Precip Events Conditions
12:53 AM 60.1 °F 57.9 °F 93% 30.07 in 10.0 mi NNW 9.2 mph - N/A   Overcast
1:53 AM 59.0 °F 57.0 °F 93% 30.07 in 10.0 mi NNW 6.9 mph - N/A   Clear
2:53 AM 57.9 °F 55.9 °F 93% 30.06 in 10.0 mi NNW 5.8 mph - N/A   Clear
3:53 AM 57.0 °F 55.9 °F 96% 30.06 in 10.0 mi North 4.6 mph - N/A   Clear
4:53 AM 57.0 °F 55.9 °F 96% 30.06 in 10.0 mi North 5.8 mph - N/A   Mostly Cloudy
5:53 AM 55.9 °F 55.0 °F 97% 30.07 in 10.0 mi North 8.1 mph - N/A   Clear
6:13 AM 55.4 °F 55.4 °F 100% 30.08 in 9.0 mi North 6.9 mph - 0.01 in   Partly Cloudy
6:36 AM 55.4 °F 55.4 °F 100% 30.08 in 3.0 mi NNW 8.1 mph - 0.01 in   Mostly Cloudy
6:40 AM 55.4 °F 55.4 °F 100% 30.08 in 1.5 mi NNW 9.2 mph - 0.01 in   Mostly Cloudy
6:45 AM 55.4 °F 55.4 °F 100% 30.08 in 0.8 mi NNW 8.1 mph - 0.01 in   Mist
6:53 AM 55.9 °F 55.0 °F 97% 30.08 in 0.5 mi NNW 9.2 mph - 0.01 in Fog Fog
7:41 AM 55.4 °F 55.4 °F 100% 30.09 in 1.0 mi North 8.1 mph - N/A   Overcast
7:53 AM 55.0 °F 55.0 °F 100% 30.08 in 0.8 mi NNW 9.2 mph - N/A   Overcast
8:10 AM 55.4 °F 55.4 °F 100% 30.09 in 1.5 mi North 9.2 mph - N/A   Overcast
8:19 AM 55.4 °F 55.4 °F 100% 30.08 in 2.5 mi NNW 6.9 mph - N/A   Overcast
8:26 AM 55.4 °F 55.4 °F 100% 30.09 in 3.0 mi North 6.9 mph - N/A   Overcast
8:53 AM 57.0 °F 55.9 °F 96% 30.08 in 8.0 mi North 9.2 mph - N/A   Mostly Cloudy
9:02 AM 57.2 °F 55.4 °F 94% 30.08 in 10.0 mi NNW 9.2 mph - N/A   Scattered Clouds
9:53 AM 62.1 °F 55.9 °F 80% 30.07 in 10.0 mi North 9.2 mph - N/A   Clear
10:53 AM 66.9 °F 57.0 °F 70% 30.06 in 10.0 mi NNE 9.2 mph - N/A   Clear
11:53 AM 72.0 °F 57.9 °F 61% 30.06 in 10.0 mi NNW 8.1 mph - N/A   Clear
12:53 PM 73.9 °F 55.0 °F 52% 30.04 in 10.0 mi Variable 6.9 mph - N/A   Clear
1:53 PM 75.0 °F 55.0 °F 50% 30.01 in 10.0 mi North 5.8 mph - N/A   Clear
2:53 PM 77.0 °F 55.0 °F 47% 29.97 in 10.0 mi North 9.2 mph - N/A   Clear
3:53 PM 77.0 °F 52.0 °F 42% 29.96 in 10.0 mi North 6.9 mph - N/A   Clear
4:53 PM 77.0 °F 53.1 °F 43% 29.94 in 10.0 mi Variable 4.6 mph - N/A   Clear
5:53 PM 75.9 °F 54.0 °F 46% 29.94 in 10.0 mi North 5.8 mph - N/A   Clear
6:53 PM 70.0 °F 55.9 °F 61% 29.94 in 10.0 mi NW 5.8 mph - N/A   Clear
7:53 PM 66.0 °F 55.0 °F 68% 29.94 in 10.0 mi NNW 4.6 mph - N/A   Clear
8:53 PM 64.0 °F 55.0 °F 73% 29.95 in 10.0 mi NNW 6.9 mph - N/A   Clear
9:53 PM 63.0 °F 54.0 °F 72% 29.95 in 10.0 mi NNW 5.8 mph - N/A   Clear
10:53 PM 60.1 °F 54.0 °F 80% 29.95 in 3.0 mi NW 4.6 mph - N/A   Haze
11:00 PM 60.8 °F 53.6 °F 77% 29.96 in 2.5 mi WNW 4.6 mph - N/A   Haze
11:22 PM 57.2 °F 53.6 °F 88% 29.96 in 5.0 mi Calm Calm - N/A   Clear
11:53 PM 57.9 °F 54.0 °F 87% 29.94 in 6.0 mi WNW 6.9 mph - N/A   Clear